Theta_e
297 298 306 318 319 325 327 327 327 328 328 328 329 328 328 329 327 328 327 324 320 318 317 316 314 312 310 309 306 305 305 303 306 306 305 301 304 305 305 305 305 306 307
295 296 298 302 315 321 326 327 327 328 328 329 328 329 329 329 329 328 326 325 323 320 319 316 314 311 308 307 306 304 301 303 306 301 299 300 304 302 301 301 302 302 304
295 296 296 297 304 316 323 326 327 328 328 328 326 321 321 324 325 325 325 324 324 322 319 316 313 311 311 311 309 307 305 303 300 304 305 299 299 300 301 300 300 300 300
294 296 296 295 298 308 314 323 327 328 328 328 325 324 323 322 323 323 325 326 324 323 321 319 318 315 313 311 311 308 307 306 302 302 303 302 302 300 298 299 298 299 299
294 295 296 295 295 299 304 308 315 321 326 326 326 324 323 323 319 319 320 321 324 324 321 320 318 316 315 314 312 308 307 307 307 305 300 300 298 297 297 294 297 298 298
291 292 295 297 297 300 300 300 299 301 307 322 325 324 323 319 319 322 323 323 324 325 323 320 319 318 316 314 313 312 309 308 308 306 302 301 298 295 294 293 294 294 295
293 294 296 296 299 301 302 303 302 300 299 299 309 321 322 320 322 323 324 322 321 320 322 321 319 318 317 315 314 311 310 309 307 306 305 304 302 299 297 295 293 292 293
293 294 296 298 300 301 302 303 303 302 299 297 298 309 318 321 321 320 320 321 322 321 322 320 319 318 317 316 314 312 310 307 306 305 303 302 301 300 298 297 292 290 289
293 295 296 298 299 301 302 303 303 303 303 302 300 304 308 314 318 318 316 320 319 315 317 316 315 314 314 312 311 307 306 303 302 301 301 301 300 299 299 298 295 293 287
293 294 295 296 298 300 302 302 302 303 303 303 305 306 307 309 311 311 311 313 311 311 311 311 310 308 308 307 306 304 301 300 299 299 299 298 298 298 296 293 294 293 292
293 294 294 296 297 298 300 301 302 302 301 302 301 303 304 305 307 308 309 309 307 308 307 306 305 304 304 302 301 300 299 298 297 297 296 295 296 294 294 291 291 291 291
292 293 294 294 294 296 299 300 300 301 302 302 301 301 302 303 303 306 306 307 306 305 304 302 301 300 300 300 299 297 297 296 295 294 293 293 293 292 292 291 290 290 290
291 293 293 293 294 294 296 298 299 300 302 302 303 305 305 304 304 304 303 301 300 298 297 297 296 294 292 294 295 296 295 295 294 292 291 291 290 289 288 289 288 287 289
292 292 292 292 293 294 295 296 297 299 305 305 305 304 303 302 300 299 298 297 296 295 293 291 290 289 290 289 290 290 291 291 291 289 289 289 288 288 288 287 287 286 286
292 292 292 292 293 293 294 295 295 297 300 301 299 298 297 296 295 293 292 290 289 288 288 288 287 288 288 287 288 288 288 287 286 286 285 286 287 288 289 286 286 285 285
292 292 292 293 293 293 293 294 294 295 295 294 293 291 292 289 288 287 286 286 286 286 287 287 288 287 286 289 291 288 285 284 284 283 282 282 281 283 288 289 290 289 285
293 292 294 294 294 294 295 294 293 292 291 289 287 287 286 286 286 286 286 285 286 286 285 284 285 285 286 290 290 288 284 283 283 284 283 284 284 282 282 285 287 286 287
292 292 293 294 294 293 292 291 290 289 287 286 286 286 286 285 285 284 284 284 283 283 283 282 282 282 283 289 289 287 283 282 282 282 283 282 282 283 283 281 280 281 282
295 295 295 294 292 292 290 289 287 286 286 285 285 285 284 283 284 284 283 282 282 282 281 280 279 280 279 288 288 285 279 281 281 283 283 285 284 286 287 285 284 283 284
293 292 292 291 291 288 288 287 285 285 285 284 284 283 282 283 282 282 282 281 281 282 282 280 277 277 276 288 288 284 279 277 281 282 284 284 285 286 287 284 284 283 283
291 289 290 290 290 287 287 285 284 284 283 282 281 280 280 281 281 281 281 282 281 280 276 278 276 277 277 280 288 287 281 282 282 282 282 283 284 285 286 286 283 283 285
285 285 285 284 284 286 286 284 283 282 281 280 279 278 278 280 280 281 281 280 280 280 277 277 276 275 276 283 286 286 285 284 282 282 282 283 286 286 286 285 286 286 286
284 284 283 282 282 283 283 283 280 280 279 278 276 276 280 281 281 281 279 279 278 278 276 275 273 272 274 273 283 284 284 284 282 282 283 284 284 285 285 286 286 282 273
282 280 281 280 278 277 279 280 279 278 278 277 277 276 277 279 279 279 278 275 274 272 272 272 274 269 270 271 280 281 282 282 282 283 283 283 283 284 284 277 280 276 276
278 278 279 279 276 275 275 276 276 277 277 276 277 278 278 278 276 276 273 276 270 272 267 266 268 271 276 278 282 282 281 282 283 276 272 271 271 271 273 274 273 274 273
275 275 274 275 273 272 272 271 272 277 277 277 277 276 276 275 274 275 274 281 281 283 282 280 274 269 281 282 283 283 283 284 284 268 266 267 271 275 272 273 274 276 276
Wind_Speed
14 11 11 14 10 13 15 16 15 14 9 10 8 8 9 6 5 6 9 9 8 8 8 5 5 5 6 6 5 3 5 3 2 1 3 4 7 6 6 4 4 5 5
8 9 10 9 13 16 16 16 16 15 13 10 9 10 9 7 4 5 7 8 10 10 8 7 6 6 4 6 6 5 3 3 4 2 1 4 4 2 3 4 4 6 4
11 10 9 10 9 13 17 16 16 16 14 13 6 2 1 1 3 3 4 5 8 9 9 9 6 6 5 7 7 6 6 3 3 5 3 0 4 3 1 3 3 5 3
7 7 7 7 11 12 7 12 14 14 14 14 11 13 11 11 9 6 5 6 8 8 9 8 9 9 7 7 8 6 5 4 4 2 4 2 0 3 4 2 3 3 4
8 9 9 8 5 7 6 4 4 6 9 11 12 11 11 7 3 3 6 5 6 10 10 10 9 8 7 8 7 6 8 7 5 5 2 3 3 2 3 3 4 3 3
8 8 3 5 4 5 6 5 4 3 5 8 12 12 12 7 6 6 6 5 5 6 8 9 9 10 8 8 8 8 8 8 8 4 4 4 4 3 3 5 4 4 4
5 5 6 3 3 5 4 2 3 4 4 4 5 9 11 11 12 10 8 9 6 4 8 10 9 8 10 9 8 7 8 8 7 7 6 5 5 3 3 2 2 3 3
6 7 6 5 4 4 3 2 2 3 3 7 8 7 8 8 7 8 5 7 6 6 6 8 7 8 8 8 7 5 5 5 5 6 4 3 4 3 3 3 3 3 3
6 7 6 5 6 5 4 4 4 2 0 4 6 6 6 7 7 6 4 4 5 3 5 5 5 5 5 4 4 3 4 4 4 3 3 2 1 2 3 3 3 3 2
7 7 7 6 4 5 4 4 3 3 1 2 3 2 3 4 4 4 5 5 4 4 4 4 4 4 4 5 5 3 2 4 3 3 3 2 2 2 2 2 3 3 3
9 6 6 5 5 4 4 4 4 4 3 2 2 4 4 5 5 5 5 5 5 5 5 5 6 5 5 4 5 5 5 5 3 2 2 2 1 2 2 1 1 2 3
6 5 6 6 5 6 6 6 4 4 4 3 3 3 4 4 4 6 5 5 6 6 6 6 6 6 5 4 5 4 4 3 2 1 1 2 1 2 2 2 3 3 3
7 7 8 8 7 6 6 6 5 4 4 4 5 4 4 5 6 6 6 6 7 6 6 6 6 6 5 5 5 4 3 4 3 2 1 2 1 3 2 2 2 2 2
8 7 6 7 7 7 7 6 6 6 5 5 5 5 5 6 6 6 6 6 6 6 6 6 6 6 5 6 5 4 3 3 2 1 0 2 2 3 4 3 4 2 3
8 9 9 7 7 7 7 6 5 6 5 5 5 5 5 6 6 6 6 6 7 6 6 6 6 6 5 4 5 4 4 3 2 1 1 1 3 5 5 2 3 2 3
10 9 8 9 10 8 8 7 7 7 6 7 6 6 6 6 6 6 6 7 6 6 6 6 6 6 4 7 7 5 3 3 2 1 2 2 2 3 5 7 8 7 3
12 11 16 14 11 12 10 10 8 6 7 7 6 6 6 6 6 6 6 6 5 5 6 5 5 6 5 7 6 6 3 2 2 2 3 4 3 4 4 7 9 7 9
11 10 10 10 9 7 7 7 7 6 7 7 7 7 7 6 6 6 6 6 4 5 4 4 5 5 3 6 6 6 3 3 4 4 4 4 4 5 4 2 3 4 4
15 12 11 7 8 11 8 9 7 7 7 7 6 6 6 6 7 8 7 5 6 3 3 3 4 4 3 5 6 5 3 4 4 4 4 4 5 9 11 8 7 6 6
6 8 9 7 11 9 11 11 9 9 8 7 7 5 5 5 6 6 5 2 3 5 4 4 3 3 3 7 8 6 3 4 4 4 4 6 7 11 13 6 6 8 9
7 6 9 11 10 12 13 11 9 9 7 7 6 5 3 6 6 5 2 4 6 6 4 5 3 5 5 5 10 11 4 3 3 3 4 4 11 11 12 12 5 8 12
5 7 8 7 7 10 11 11 10 9 9 9 7 6 6 4 3 6 4 5 6 6 4 5 3 3 4 8 8 7 5 3 3 4 4 5 13 14 13 11 15 16 16
7 6 9 9 6 6 6 9 6 9 9 9 8 6 6 5 4 5 5 4 3 5 4 4 3 2 3 3 6 4 4 5 4 3 7 12 12 13 10 12 14 11 2
4 3 9 9 5 4 6 7 11 10 11 10 8 6 7 6 5 4 3 5 4 3 3 4 4 2 1 1 1 2 3 5 4 6 5 7 8 11 12 5 7 4 4
3 2 6 7 8 6 7 8 10 11 10 7 7 6 5 5 5 3 4 4 2 4 4 3 3 3 3 1 2 2 1 2 4 3 2 2 2 3 3 4 4 4 5
3 4 3 7 6 6 7 5 5 8 10 9 6 6 5 4 4 5 5 7 8 8 8 9 6 3 4 2 1 3 5 7 7 4 2 3 4 7 7 8 8 7 9
Wind_Direction
232 225 205 205 199 200 196 198 199 197 189 205 199 207 214 208 198 204 196 193 189 190 189 194 186 177 194 198 178 170 201 240 210 302 295 268 239 243 242 237 243 247 244
238 239 203 192 192 196 196 198 198 193 193 201 208 216 220 220 211 192 199 195 193 193 197 192 197 188 174 185 194 172 174 204 185 162 77 319 327 294 247 247 229 237 244
226 229 218 200 192 194 200 196 194 195 193 195 175 105 118 174 182 189 201 199 197 197 200 191 186 182 189 213 203 187 186 181 210 211 179 240 242 329 356 271 254 256 242
225 225 227 222 203 209 194 198 191 192 193 185 185 195 202 205 215 202 198 191 191 201 202 207 204 203 198 205 209 192 188 157 210 214 231 231 186 238 311 326 295 289 277
204 219 228 234 196 156 162 168 177 185 187 190 192 193 209 212 172 164 180 203 202 196 198 200 200 203 200 219 202 190 198 207 205 205 164 226 202 248 240 274 300 320 265
215 210 160 137 132 103 109 116 135 172 173 183 197 199 206 189 182 193 197 207 203 203 203 201 200 203 201 206 214 207 204 204 216 193 181 186 179 196 196 234 251 252 292
152 150 151 139 103 101 83 112 162 208 203 203 200 198 202 192 197 199 197 188 198 191 205 197 202 202 206 202 195 200 209 207 207 203 212 215 220 156 191 193 239 251 291
171 168 166 154 118 97 93 42 274 258 211 199 210 213 200 201 198 194 189 202 193 204 209 197 195 200 198 198 191 200 200 177 202 198 189 183 202 170 187 196 162 282 268
183 173 160 159 161 156 151 161 151 123 226 207 194 206 204 194 200 199 194 218 160 178 176 178 181 187 190 194 179 168 175 159 170 199 194 209 209 197 216 206 170 192 276
191 186 175 175 179 157 153 140 145 148 122 93 124 149 173 188 171 148 165 165 116 133 141 132 128 115 116 129 129 125 125 127 118 140 167 196 227 228 217 212 202 199 227
206 190 177 174 164 137 145 155 162 155 162 138 129 126 108 116 118 120 127 121 109 113 109 116 107 104 97 90 97 95 108 108 127 121 158 224 268 277 266 234 224 228 203
193 182 173 167 164 173 179 186 179 177 181 171 138 110 108 110 111 87 84 89 94 88 100 93 92 94 102 101 107 113 120 118 101 54 41 312 334 307 292 267 254 245 226
164 179 185 192 188 190 188 188 181 202 167 142 134 131 125 104 88 87 86 84 88 81 81 92 97 99 88 81 68 80 81 69 63 55 23 298 314 293 302 296 290 266 268
193 197 196 199 197 194 185 179 184 190 181 151 141 124 112 99 99 100 97 98 94 96 87 89 99 91 85 82 83 85 85 87 85 90 294 322 310 295 307 295 277 270 273
208 208 200 199 196 192 189 182 184 180 183 144 119 114 103 96 98 96 94 95 94 102 111 105 87 92 99 114 113 110 108 115 130 99 301 267 270 278 271 254 270 274 287
222 209 200 198 202 190 185 174 176 180 159 146 136 135 119 113 122 131 125 114 118 116 112 114 128 118 106 93 93 95 101 90 96 14 346 327 329 303 307 300 294 274 267
223 204 204 203 194 191 179 185 170 155 149 138 141 142 131 137 157 128 118 113 112 104 94 90 97 88 77 89 88 93 99 107 75 28 8 4 1 353 336 329 324 323 310
221 210 198 197 189 165 162 146 143 150 139 141 147 144 142 151 135 117 113 106 87 95 100 96 88 97 70 93 91 91 100 93 69 58 27 19 4 350 338 320 324 297 282
220 214 199 175 147 163 155 134 134 137 142 150 148 148 147 153 137 130 137 128 123 143 108 102 101 105 71 99 112 122 100 70 44 24 22 359 349 347 338 326 304 297 295
180 177 159 144 154 153 140 144 152 153 158 153 148 140 135 133 132 132 137 100 101 96 96 101 90 117 105 75 75 86 74 55 35 23 14 2 352 338 333 324 315 310 308
164 137 150 163 158 143 146 150 154 163 130 119 118 128 131 134 124 120 78 118 104 102 87 96 67 77 70 43 67 70 70 51 16 4 353 346 335 329 330 328 323 309 315
112 114 122 132 135 143 142 147 158 139 133 138 129 122 112 104 94 126 117 110 117 117 109 108 77 38 41 68 72 71 61 40 2 346 319 309 316 318 320 320 315 317 315
133 127 129 117 106 119 139 144 135 133 132 126 125 122 118 113 117 126 127 114 127 123 128 112 94 50 26 34 79 43 33 13 2 332 319 325 323 317 308 297 300 308 312
133 118 129 130 129 111 111 132 145 143 141 140 139 136 135 141 133 125 123 118 119 110 114 122 122 136 57 10 47 36 14 355 342 327 323 324 327 316 304 305 300 293 285
96 101 136 144 147 145 135 145 144 146 138 126 134 141 142 141 128 97 130 133 159 143 151 174 144 132 127 188 48 16 308 311 310 341 339 314 310 313 326 334 306 297 293
129 126 128 139 156 141 131 125 125 145 143 145 153 153 143 136 136 128 95 90 135 145 150 158 154 225 174 152 43 338 326 328 334 36 336 328 6 360 337 331 330 338 330